GW6471 Weather Reports


time (UTC)temp
C
wind
direction
speed
KPH
gust
KPH
rain 1hr
cm
rain 24hr
cm
rain mn
cm
humidity
%
barometer
mb
20260507200511 8 194 0.0 0.0 0.00 0.00 0.00 40 1012.8
20260507200007 8 204 0.0 1.6 0.00 0.00 0.00 39 1012.7
20260507195505 8 102 1.6 1.6 0.00 0.00 0.00 39 1012.9
20260507195002 9 222 3.2 4.8 0.00 0.00 0.00 40 1012.8
20260507194458 9 112 3.2 3.2 0.00 0.00 0.00 38 1012.7
20260507193954 9 206 1.6 1.6 0.00 0.00 0.00 39 1012.9
20260507193452 9 194 1.6 3.2 0.00 0.00 0.00 40 1012.9
20260507192948 9 116 0.0 0.0 0.00 0.00 0.00 40 1012.9
20260507192444 9 115 1.6 1.6 0.00 0.00 0.00 47 1012.8
20260507191942 9 252 1.6 4.8 0.00 0.00 0.00 40 1012.9
20260507191437 8 135 1.6 1.6 0.00 0.00 0.00 42 1013.0
20260507190934 8 233 1.6 3.2 0.00 0.00 0.00 40 1013.0
20260507190432 8 63 1.6 1.6 0.00 0.00 0.00 46 1012.9
20260507185931 9 209 1.6 1.6 0.00 0.00 0.00 44 1013.0
20260507185428 8 158 0.0 1.6 0.00 0.00 0.00 43 1013.0
20260507184924 8 252 4.8 4.8 0.00 0.00 0.00 43 1013.0
20260507184422 8 219 3.2 4.8 0.00 0.00 0.00 44 1013.1
20260507183920 8 198 1.6 1.6 0.00 0.00 0.00 46 1013.0
20260507183416 8 228 1.6 1.6 0.00 0.00 0.00 46 1012.9
20260507182914 8 102 1.6 1.6 0.00 0.00 0.00 45 1013.2
20260507182409 8 162 0.0 0.0 0.00 0.00 0.00 45 1013.4
20260507181906 8 275 3.2 3.2 0.00 0.00 0.00 43 1013.3
20260507181402 8 59 4.8 6.4 0.00 0.00 0.00 44 1013.2
20260507180859 8 214 1.6 1.6 0.00 0.00 0.00 43 1013.3
20260507180355 8 161 0.0 0.0 0.00 0.00 0.00 43 1013.3
20260507175851 8 208 1.6 3.2 0.00 0.00 0.00 43 1013.5
20260507175348 8 116 0.0 0.0 0.00 0.00 0.00 43 1013.2
20260507174846 8 171 1.6 3.2 0.00 0.00 0.00 45 1013.5
20260507174343 8 209 1.6 1.6 0.00 0.00 0.00 45 1013.3
20260507173841 8 175 0.0 0.0 0.00 0.00 0.00 44 1013.5
20260507173337 8 222 4.8 4.8 0.00 0.00 0.00 43 1013.3
20260507172833 8 276 1.6 1.6 0.00 0.00 0.00 42 1013.5
20260507172331 8 1 3.2 4.8 0.00 0.00 0.00 45 1013.7
20260507171826 8 238 1.6 1.6 0.00 0.00 0.00 46 1013.7
20260507171323 8 209 1.6 1.6 0.00 0.00 0.00 45 1013.6
20260507170820 8 212 0.0 1.6 0.00 0.00 0.00 45 1013.7
20260507170317 8 82 3.2 3.2 0.00 0.00 0.00 43 1013.8
20260507165813 8 212 3.2 3.2 0.00 0.00 0.00 43 1013.9
20260507165309 8 75 1.6 3.2 0.00 0.00 0.00 44 1013.9
20260507164805 7 240 3.2 3.2 0.00 0.00 0.00 43 1013.9
20260507164302 8 222 1.6 3.2 0.00 0.00 0.00 42 1014.0
20260507163759 8 201 1.6 1.6 0.00 0.00 0.00 43 1014.1
20260507163257 7 225 3.2 4.8 0.00 0.00 0.00 44 1014.0
20260507162753 7 312 3.2 4.8 0.00 0.00 0.00 43 1014.1
20260507162249 8 256 1.6 3.2 0.00 0.00 0.00 43 1014.1
20260507161746 8 237 0.0 0.0 0.00 0.00 0.00 43 1014.1
20260507161243 8 125 1.6 1.6 0.00 0.00 0.00 44 1014.3
20260507160738 8 221 1.6 3.2 0.00 0.00 0.00 42 1014.2
20260507160235 8 218 1.6 1.6 0.00 0.00 0.00 42 1014.3
20260507155731 7 238 3.2 4.8 0.00 0.00 0.00 45 1014.2
20260507155227 7 182 1.6 3.2 0.00 0.00 0.00 43 1014.3
20260507154724 8 305 4.8 4.8 0.00 0.00 0.00 45 1014.1
20260507154222 8 85 3.2 4.8 0.00 0.00 0.00 44 1014.4
20260507153718 7 239 3.2 3.2 0.00 0.00 0.00 47 1014.4
20260507153214 7 209 4.8 6.4 0.00 0.00 0.00 45 1014.5
20260507152711 7 200 0.0 0.0 0.00 0.00 0.00 46 1014.4
20260507152207 7 239 3.2 4.8 0.00 0.00 0.00 44 1014.4
20260507151703 7 193 6.4 11.3 0.00 0.00 0.00 45 1014.4
20260507151200 7 219 0.0 0.0 0.00 0.00 0.00 47 1014.5
20260507150657 7 204 0.0 1.6 0.00 0.00 0.00 46 1014.3
20260507150154 7 227 1.6 1.6 0.00 0.00 0.00 50 1014.5
20260507145649 7 165 0.0 0.0 0.00 0.00 0.00 47 1014.4
20260507145147 7 228 1.6 3.2 0.00 0.00 0.00 50 1014.4
20260507144643 7 243 1.6 1.6 0.00 0.00 0.00 50 1014.5
20260507144141 7 187 4.8 11.3 0.00 0.00 0.00 49 1014.5
20260507143637 7 215 3.2 3.2 0.00 0.00 0.00 50 1014.5
20260507143135 7 193 1.6 1.6 0.00 0.00 0.00 50 1014.5
20260507142630 7 305 1.6 1.6 0.00 0.00 0.00 52 1014.5
20260507142127 6 214 0.0 0.0 0.00 0.00 0.00 55 1014.7
20260507141623 7 249 3.2 3.2 0.00 0.00 0.00 55 1014.8
20260507141120 7 230 0.0 1.6 0.00 0.00 0.00 53 1014.8
20260507140617 6 216 1.6 3.2 0.00 0.00 0.00 53 1014.6
20260507140114 6 313 3.2 3.2 0.00 0.00 0.00 51 1014.8
20260507135611 6 201 3.2 3.2 0.00 0.00 0.00 52 1014.5
20260507135109 7 211 3.2 3.2 0.00 0.00 0.00 54 1014.7
20260507134605 7 256 1.6 1.6 0.00 0.00 0.00 58 1014.6
20260507134101 7 217 3.2 4.8 0.00 0.00 0.00 59 1014.7
20260507133557 6 291 1.6 1.6 0.00 0.00 0.00 61 1014.6
20260507133055 6 205 1.6 3.2 0.00 0.00 0.00 64 1014.6
20260507132551 5 214 3.2 4.8 0.00 0.00 0.00 65 1014.7
20260507132048 5 148 0.0 3.2 0.00 0.00 0.00 67 1014.7
20260507131545 6 217 0.0 1.6 0.00 0.00 0.00 70 1014.8
20260507131042 5 196 1.6 3.2 0.00 0.00 0.00 68 1014.7
20260507130539 5 191 0.0 0.0 0.00 0.00 0.00 70 1014.8
20260507130037 5 196 0.0 1.6 0.00 0.00 0.00 72 1014.7
20260507125535 5 195 3.2 3.2 0.00 0.00 0.00 74 1014.9
20260507125032 5 184 0.0 0.0 0.00 0.00 0.00 73 1014.7
20260507124529 4 209 1.6 3.2 0.00 0.00 0.00 75 1014.7
20260507124026 4 204 0.0 1.6 0.00 0.00 0.00 75 1014.7
20260507123525 3 213 3.2 4.8 0.00 0.00 0.00 76 1014.3
20260507123021 3 199 1.6 1.6 0.00 0.00 0.00 80 1014.5
20260507122516 2 238 1.6 1.6 0.00 0.00 0.00 80 1014.2
20260507122012 2 192 0.0 0.0 0.00 0.00 0.00 85 1014.5
20260507121508 1 192 0.0 0.0 0.00 0.00 0.00 87 1014.5
20260507121004 1 187 0.0 0.0 0.00 0.00 0.00 92 1014.7
20260507120500 0 187 0.0 0.0 0.00 0.00 0.00 93 1014.5
20260507115957 0 187 0.0 0.0 0.00 0.00 0.00 93 1014.4
20260507115454 0 188 0.0 0.0 0.00 0.00 0.00 94 1014.4
20260507114949 0 187 0.0 0.0 0.00 0.00 0.00 94 1014.3
20260507114445 0 187 0.0 0.0 0.00 0.00 0.00 94 1014.2
20260507113943 0 187 0.0 0.0 0.00 0.00 0.00 95 1014.3
20260507113440 0 187 0.0 0.0 0.00 0.00 0.00 95 1014.3
20260507112937 0 187 0.0 0.0 0.00 0.00 0.00 95 1014.2
20260507112435 0 187 0.0 0.0 0.00 0.00 0.00 95 1013.9
20260507111931 -1 187 0.0 0.0 0.00 0.00 0.00 95 1014.1
20260507111429 -1 187 0.0 0.0 0.00 0.00 0.00 95 1014.2
20260507110925 -1 187 0.0 0.0 0.00 0.00 0.00 95 1013.9
20260507110421 -1 187 0.0 0.0 0.00 0.00 0.00 95 1014.0
20260507105918 -1 187 0.0 0.0 0.00 0.00 0.00 95 1014.0
20260507105415 -1 187 0.0 0.0 0.00 0.00 0.00 95 1014.1
20260507104912 -1 187 0.0 0.0 0.00 0.00 0.00 95 1013.8
20260507104408 -1 187 0.0 0.0 0.00 0.00 0.00 95 1014.0
20260507103904 -1 187 0.0 0.0 0.00 0.00 0.00 95 1013.9
20260507103401 -1 187 0.0 0.0 0.00 0.00 0.00 94 1013.7
20260507102857 -1 187 0.0 0.0 0.00 0.00 0.00 94 1013.9
20260507102354 -1 187 0.0 0.0 0.00 0.00 0.00 94 1013.7
20260507101851 -1 187 0.0 0.0 0.00 0.00 0.00 94 1013.9
20260507101350 0 187 0.0 0.0 0.00 0.00 0.00 94 1013.9
20260507100848 0 187 0.0 0.0 0.00 0.00 0.00 94 1013.8
20260507100346 0 187 0.0 0.0 0.00 0.00 0.00 94 1013.7
20260507095843 0 187 0.0 0.0 0.00 0.00 0.00 93 1013.7
20260507095339 0 187 0.0 0.0 0.00 0.00 0.00 93 1013.6
20260507094837 0 187 0.0 0.0 0.00 0.00 0.00 93 1013.7
20260507094333 0 187 0.0 0.0 0.00 0.00 0.00 93 1013.6
20260507093830 0 187 0.0 0.0 0.00 0.00 0.00 92 1013.6
20260507093329 0 187 0.0 0.0 0.00 0.00 0.00 92 1013.4
20260507092826 0 187 0.0 0.0 0.00 0.00 0.00 92 1013.6
20260507092323 0 187 0.0 0.0 0.00 0.00 0.00 92 1013.5
20260507091819 0 187 0.0 0.0 0.00 0.00 0.00 91 1013.7
20260507091316 0 187 0.0 0.0 0.00 0.00 0.00 91 1013.7
20260507090811 0 187 0.0 0.0 0.00 0.00 0.00 90 1013.8
20260507090308 0 187 0.0 0.0 0.00 0.00 0.00 90 1013.6
20260507085805 0 187 0.0 0.0 0.00 0.00 0.00 90 1013.7
20260507085302 0 188 0.0 0.0 0.00 0.00 0.00 89 1013.5
20260507084759 1 188 0.0 0.0 0.00 0.00 0.00 89 1013.8
20260507084255 1 187 0.0 0.0 0.00 0.00 0.00 89 1013.7
20260507083753 1 187 0.0 0.0 0.00 0.00 0.00 88 1013.8
20260507083249 1 187 0.0 0.0 0.00 0.00 0.00 88 1013.8
20260507082745 1 187 0.0 0.0 0.00 0.00 0.00 87 1014.0
20260507082241 1 187 0.0 0.0 0.00 0.00 0.00 87 1013.8
20260507081738 1 187 0.0 0.0 0.00 0.00 0.00 86 1013.7
20260507081234 1 187 0.0 0.0 0.00 0.00 0.00 86 1013.8
20260507080731 1 187 0.0 0.0 0.00 0.00 0.00 85 1013.8
20260507080227 2 187 0.0 0.0 0.00 0.00 0.00 85 1013.8
20260507075722 2 187 0.0 0.0 0.00 0.00 0.00 84 1013.9
20260507075219 2 187 0.0 0.0 0.00 0.00 0.00 83 1014.1
20260507074715 2 187 0.0 0.0 0.00 0.00 0.00 82 1014.0
20260507074214 2 187 0.0 0.0 0.00 0.00 0.00 82 1014.2
20260507073710 2 187 0.0 0.0 0.00 0.00 0.00 82 1014.1
20260507073206 2 187 0.0 0.0 0.00 0.00 0.00 81 1014.0
20260507072705 2 187 0.0 0.0 0.00 0.00 0.00 82 1014.1
20260507072201 2 187 0.0 0.0 0.00 0.00 0.00 82 1014.2
20260507071659 2 187 0.0 0.0 0.00 0.00 0.00 81 1014.1
20260507071155 2 187 0.0 0.0 0.00 0.00 0.00 80 1014.2
20260507070652 2 187 0.0 0.0 0.00 0.00 0.00 80 1014.2
20260507070149 2 187 0.0 0.0 0.00 0.00 0.00 80 1014.4
20260507065645 2 187 0.0 0.0 0.00 0.00 0.00 80 1014.4
20260507065142 2 187 0.0 0.0 0.00 0.00 0.00 80 1014.3
20260507064640 2 187 0.0 0.0 0.00 0.00 0.00 81 1014.5
20260507064138 2 187 0.0 0.0 0.00 0.00 0.00 79 1014.4
20260507063636 2 187 0.0 0.0 0.00 0.00 0.00 79 1014.6
20260507063132 2 187 0.0 0.0 0.00 0.00 0.00 80 1014.6
20260507062629 3 187 0.0 0.0 0.00 0.00 0.00 80 1014.6
20260507062127 3 187 0.0 0.0 0.00 0.00 0.00 80 1014.7
20260507061624 3 188 0.0 0.0 0.00 0.00 0.00 79 1014.7
20260507061122 3 188 0.0 0.0 0.00 0.00 0.00 79 1014.7
20260507060620 3 188 0.0 0.0 0.00 0.00 0.00 78 1014.6
20260507060116 3 188 0.0 0.0 0.00 0.00 0.00 78 1014.8
20260507055612 3 187 0.0 0.0 0.00 0.00 0.00 77 1014.8
20260507055108 3 187 0.0 0.0 0.00 0.00 0.00 75 1014.7
20260507054604 3 187 0.0 0.0 0.00 0.00 0.00 75 1014.8
20260507054101 3 187 0.0 0.0 0.00 0.00 0.00 74 1014.7
20260507053559 3 187 0.0 0.0 0.00 0.00 0.00 77 1014.8
20260507053058 3 187 0.0 0.0 0.00 0.00 0.00 73 1014.9
20260507052555 3 187 0.0 0.0 0.00 0.00 0.00 73 1014.9
20260507052051 3 187 0.0 0.0 0.00 0.00 0.00 74 1014.9
20260507051549 4 187 0.0 0.0 0.00 0.00 0.00 74 1014.9
20260507051046 4 187 0.0 0.0 0.00 0.00 0.00 71 1014.9
20260507050542 3 187 0.0 0.0 0.00 0.00 0.00 77 1014.9
20260507050039 3 187 0.0 0.0 0.00 0.00 0.00 78 1014.9
20260507045536 3 187 0.0 0.0 0.00 0.00 0.00 76 1015.0
20260507045033 3 187 0.0 0.0 0.00 0.00 0.00 77 1015.1
20260507044529 3 187 0.0 0.0 0.00 0.00 0.00 80 1015.1
20260507044026 3 188 0.0 0.0 0.00 0.00 0.00 80 1015.0
20260507043522 3 188 0.0 0.0 0.00 0.00 0.00 77 1015.0
20260507043020 3 187 0.0 0.0 0.00 0.00 0.00 76 1015.3
20260507042516 3 187 0.0 0.0 0.00 0.00 0.00 79 1015.1
20260507042011 3 188 0.0 0.0 0.00 0.00 0.00 77 1014.9
20260507041509 3 187 0.0 0.0 0.00 0.00 0.00 77 1015.3
20260507041005 4 187 0.0 0.0 0.00 0.00 0.00 74 1015.1
20260507040501 4 187 0.0 0.0 0.00 0.00 0.00 73 1014.9
20260507035957 4 187 0.0 0.0 0.00 0.00 0.00 71 1014.9
20260507035454 4 187 0.0 0.0 0.00 0.00 0.00 69 1015.4
20260507034950 4 187 0.0 0.0 0.00 0.00 0.00 67 1015.4
20260507034447 4 187 0.0 0.0 0.00 0.00 0.00 67 1015.4
20260507033945 5 188 0.0 0.0 0.00 0.00 0.00 69 1015.4
20260507033443 5 188 0.0 0.0 0.00 0.00 0.00 66 1015.4
20260507032940 5 188 0.0 0.0 0.00 0.00 0.00 65 1015.5
20260507032437 5 187 0.0 0.0 0.00 0.00 0.00 64 1015.5
20260507031933 5 187 0.0 0.0 0.00 0.00 0.00 65 1015.5
20260507031429 5 188 0.0 0.0 0.00 0.00 0.00 66 1015.5
20260507030926 5 187 0.0 1.6 0.00 0.00 0.00 66 1015.4
20260507030424 4 187 0.0 0.0 0.00 0.00 0.00 67 1015.4
20260507025921 4 187 0.0 0.0 0.00 0.00 0.00 67 1015.4
20260507025418 4 187 0.0 0.0 0.00 0.00 0.00 67 1015.5
20260507024915 4 187 0.0 0.0 0.00 0.00 0.00 66 1015.3
20260507024413 4 187 0.0 0.0 0.00 0.00 0.00 66 1015.3
20260507023908 4 187 0.0 0.0 0.00 0.00 0.00 65 1015.5
20260507023405 4 187 0.0 0.0 0.00 0.00 0.00 65 1015.4
20260507022903 4 187 0.0 0.0 0.00 0.00 0.00 64 1015.5
20260507022359 4 187 0.0 0.0 0.00 0.00 0.00 65 1015.4
20260507021855 4 187 0.0 0.0 0.00 0.00 0.00 65 1015.1
20260507021350 4 187 0.0 0.0 0.00 0.00 0.00 64 1015.0
20260507020849 4 187 0.0 0.0 0.00 0.00 0.00 63 1015.0
20260507020345 4 187 0.0 0.0 0.00 0.00 0.00 62 1015.3
20260507015842 5 187 0.0 0.0 0.00 0.00 0.00 63 1015.1
20260507015340 5 187 0.0 0.0 0.00 0.00 0.00 63 1015.3
20260507014837 5 187 0.0 0.0 0.00 0.00 0.00 63 1015.3
20260507014333 5 187 0.0 0.0 0.00 0.00 0.00 62 1014.8
20260507013830 5 187 0.0 0.0 0.00 0.00 0.00 63 1015.0
20260507013327 5 187 0.0 1.6 0.00 0.00 0.00 61 1014.8
20260507012825 5 188 0.0 1.6 0.00 0.00 0.00 60 1015.0
20260507012320 5 191 0.0 0.0 0.00 0.00 0.00 62 1014.9
20260507011817 5 191 0.0 0.0 0.00 0.00 0.00 62 1014.8
20260507011314 5 191 0.0 0.0 0.00 0.00 0.00 62 1014.8
20260507010814 5 191 0.0 0.0 0.00 0.00 0.00 62 1014.8
20260507010310 5 191 0.0 0.0 0.00 0.00 0.00 62 1014.5
20260507005807 5 191 0.0 0.0 0.00 0.00 0.00 64 1014.7
20260507005305 5 191 0.0 0.0 0.00 0.00 0.00 62 1014.6
20260507004800 6 191 0.0 0.0 0.00 0.00 0.00 60 1014.7
20260507004258 6 191 0.0 0.0 0.00 0.00 0.00 60 1014.6
20260507003754 6 191 0.0 0.0 0.00 0.00 0.00 59 1014.7
20260507003249 6 191 0.0 0.0 0.00 0.00 0.00 56 1014.4
20260507002745 6 191 0.0 0.0 0.00 0.00 0.00 55 1014.3
20260507002242 6 191 0.0 0.0 0.00 0.00 0.00 52 1014.5
20260507001739 7 214 0.0 0.0 0.00 0.00 0.00 51 1014.3
20260507001236 7 216 0.0 0.0 0.00 0.00 0.00 51 1014.2
20260507000732 7 191 1.6 1.6 0.00 0.00 0.00 51 1014.2
20260507000228 7 74 0.0 1.6 0.00 0.00 0.00 50 1014.1
20260506235725 7 81 0.0 1.6 0.00 0.00 0.00 50 1014.1
20260506235220 7 87 0.0 1.6 0.00 0.00 0.00 50 1014.2
20260506234717 7 195 1.6 1.6 0.00 0.00 0.00 47 1014.2
20260506234215 7 202 1.6 1.6 0.00 0.00 0.00 49 1014.1
20260506233712 7 249 3.2 3.2 0.00 0.00 0.00 46 1014.1
20260506233209 8 221 3.2 3.2 0.00 0.00 0.00 48 1014.2
20260506232706 8 207 0.0 0.0 0.00 0.00 0.00 47 1014.3
20260506232200 8 194 3.2 3.2 0.00 0.00 0.00 46 1014.2
20260506231658 8 207 1.6 1.6 0.00 0.00 0.00 46 1014.1
20260506231156 8 208 4.8 4.8 0.00 0.00 0.00 46 1014.1
20260506230652 8 219 6.4 6.4 0.00 0.00 0.00 45 1014.1
20260506230149 8 219 0.0 1.6 0.00 0.00 0.00 45 1014.1
20260506225646 8 218 0.0 1.6 0.00 0.00 0.00 46 1014.1
20260506225143 8 248 0.0 0.0 0.00 0.00 0.00 45 1014.2
20260506224639 8 224 1.6 1.6 0.00 0.00 0.00 45 1014.2
20260506224136 8 200 1.6 1.6 0.00 0.00 0.00 45 1014.2
20260506223632 8 295 1.6 1.6 0.00 0.00 0.00 43 1014.3
20260506223128 8 207 0.0 1.6 0.00 0.00 0.00 45 1014.1
20260506222626 9 194 3.2 3.2 0.00 0.00 0.00 43 1014.3
20260506222122 8 13 0.0 0.0 0.00 0.00 0.00 44 1014.3
20260506221619 9 233 1.6 1.6 0.00 0.00 0.00 44 1014.4
20260506221117 8 291 1.6 1.6 0.00 0.00 0.00 43 1014.3
20260506220614 8 250 1.6 3.2 0.00 0.00 0.00 44 1014.2
20260506220109 8 44 1.6 3.2 0.00 0.00 0.00 46 1014.2
20260506215606 8 205 3.2 4.8 0.00 0.00 0.00 46 1014.3
20260506215101 8 202 1.6 1.6 0.00 0.00 0.00 45 1014.2
20260506214559 9 317 6.4 9.7 0.00 0.00 0.00 44 1014.2
20260506214056 8 213 0.0 0.0 0.00 0.00 0.00 44 1014.2
20260506213554 8 208 1.6 3.2 0.00 0.00 0.00 44 1014.2
20260506213051 8 231 1.6 3.2 0.00 0.00 0.00 45 1014.2
20260506212547 10 202 3.2 4.8 0.00 0.00 0.00 43 1014.3
20260506212042 10 90 1.6 1.6 0.00 0.00 0.00 43 1014.1
20260506211538 10 225 3.2 4.8 0.00 0.00 0.00 43 1014.1
20260506211036 8 40 0.0 0.0 0.00 0.00 0.00 44 1014.3
20260506210532 8 172 0.0 1.6 0.00 0.00 0.00 45 1014.0
20260506210029 8 216 3.2 3.2 0.00 0.00 0.00 44 1014.2
20260506205526 8 61 3.2 3.2 0.00 0.00 0.00 45 1014.2
20260506205021 10 231 6.4 6.4 0.00 0.00 0.00 42 1014.2
20260506204519 10 187 0.0 1.6 0.00 0.00 0.00 44 1013.9
20260506204016 10 151 0.0 0.0 0.00 0.00 0.00 42 1014.0
20260506203514 10 132 0.0 0.0 0.00 0.00 0.00 43 1014.1
20260506203010 10 241 3.2 3.2 0.00 0.00 0.00 44 1013.8
20260506202508 9 182 1.6 3.2 0.00 0.00 0.00 43 1014.1
20260506202004 10 206 4.8 4.8 0.00 0.00 0.00 40 1014.0
20260506201502 10 228 0.0 1.6 0.00 0.00 0.00 41 1014.1
20260506200958 11 272 6.4 6.4 0.00 0.00 0.00 39 1014.1